Wind_Speed
4 5 5 5 6 6 6 6 7 8 9 9 10 12 13 14 15 16 16 16 15 14 14 14 14 14 13 14 14 14 14 14 14 14 14 15 15 15 14 13 11 9 8 8 8 7 7 7 7 8 8 8 8 9 10 11 12 12 13 14 14 14 14 14 13 12 11 11 10 10 9 9 8 8 8 9 9 9 10 10 9 8 10 12 11
4 5 5 5 5 5 6 5 6 7 8 8 8 10 11 12 13 14 15 15 14 14 13 13 13 13 12 13 13 14 14 14 14 13 13 14 14 15 15 14 12 10 8 7 7 7 7 7 7 8 8 8 8 9 11 12 12 13 14 14 14 14 13 13 12 11 11 10 9 9 9 8 8 7 7 8 8 8 8 9 9 9 11 11 10
4 5 5 5 5 4 5 5 5 6 6 7 7 8 9 10 11 12 12 13 13 14 14 13 12 13 12 12 13 13 13 13 14 13 13 13 13 14 14 14 13 11 9 8 7 7 7 7 7 8 8 9 9 10 11 12 13 14 14 14 14 14 13 12 12 11 11 10 9 8 8 8 7 7 7 7 8 8 8 9 10 10 10 10 10
4 5 5 6 6 5 5 5 5 5 5 6 5 6 8 8 9 10 10 10 11 13 13 13 12 12 12 12 12 12 12 13 13 13 12 12 12 12 13 14 14 13 11 9 7 7 7 7 8 8 9 9 9 10 11 12 13 14 14 14 14 13 12 12 12 11 10 9 8 6 8 8 6 6 6 7 7 8 9 10 11 11 11 10 10
3 4 6 7 7 7 6 6 5 5 4 5 4 4 5 6 7 8 8 8 9 11 12 13 11 11 12 12 12 11 12 12 12 12 12 12 11 11 12 13 13 13 12 9 8 7 7 8 8 9 10 9 9 10 12 13 14 14 14 14 13 13 12 12 11 10 8 8 7 5 7 7 6 5 5 6 8 9 10 11 11 11 12 12 12
2 3 6 7 9 8 7 7 6 5 4 4 3 3 3 4 5 6 6 6 7 9 10 11 11 10 11 11 11 10 11 11 11 11 11 11 11 11 11 12 12 13 12 11 9 8 7 8 8 9 10 10 10 11 13 13 14 14 13 13 13 12 12 11 10 9 8 7 6 7 7 6 6 6 6 7 8 9 10 11 11 12 13 13 13
1 3 6 7 10 10 9 8 7 7 5 4 3 2 2 2 3 4 5 5 6 7 8 10 10 9 10 11 11 10 10 10 10 11 11 10 10 10 9 10 11 12 12 11 10 8 8 8 8 9 10 10 11 12 13 13 13 13 13 13 12 12 11 10 9 8 7 5 6 7 6 5 5 5 6 7 8 10 11 12 12 13 13 14 14
1 4 6 7 10 12 11 10 9 8 7 6 4 3 2 1 1 3 3 4 5 5 6 8 9 9 9 10 10 9 9 9 9 10 10 9 9 9 8 9 9 10 11 11 10 9 8 7 8 9 9 10 11 12 12 12 12 12 12 11 11 10 9 9 7 7 5 5 6 7 6 6 5 6 7 8 10 11 12 13 14 15 15 15 16
1 4 6 6 10 13 13 12 11 10 8 7 6 5 4 3 1 1 2 3 3 4 5 5 7 8 8 9 9 9 8 8 9 9 9 9 9 8 8 8 8 9 9 10 10 9 8 7 7 8 8 9 10 11 11 11 12 11 11 10 10 9 8 7 6 5 4 4 6 5 5 7 7 7 9 10 11 13 14 15 15 16 16 17 18
1 4 5 5 10 13 14 14 14 12 11 9 8 7 6 4 3 1 2 2 2 3 3 4 5 7 7 7 8 8 8 8 8 8 8 8 9 8 7 7 7 7 8 9 9 9 8 7 6 6 7 8 9 10 10 10 10 10 9 9 8 7 6 5 5 4 3 4 5 4 5 7 8 9 11 12 13 14 15 16 16 17 18 19 20
2 4 4 3 9 12 14 16 15 14 13 11 10 9 8 6 4 3 3 2 1 2 2 2 4 6 6 6 7 7 8 8 8 8 8 8 8 8 7 7 6 6 6 7 8 8 7 7 6 6 6 7 7 8 8 9 9 9 8 7 6 5 4 3 3 3 4 5 6 6 6 8 9 11 12 13 15 15 16 17 18 19 20 21 22
4 5 2 3 9 12 14 16 16 16 15 13 12 11 10 8 6 5 5 3 1 1 2 2 2 4 5 6 6 7 7 7 7 7 7 8 7 8 7 6 6 5 5 6 6 7 7 6 6 5 5 5 6 6 6 7 7 7 6 6 5 4 3 3 3 4 5 6 7 8 8 10 10 12 13 14 15 16 17 19 20 21 22 23 23
5 5 2 4 9 11 14 16 16 17 16 15 14 12 11 10 8 7 6 4 2 2 2 2 2 3 5 5 6 6 7 7 7 7 7 7 7 7 7 6 5 5 5 5 5 6 6 6 6 5 5 5 5 5 5 5 5 5 5 4 4 4 4 4 4 4 5 6 7 9 9 10 11 12 13 15 16 17 19 20 21 22 22 22 23
7 6 3 6 8 10 13 15 16 18 17 16 15 14 12 12 11 9 8 5 3 3 3 3 2 2 4 5 5 6 6 7 7 7 6 6 6 6 6 5 5 4 4 4 4 5 5 5 5 5 5 4 4 4 4 3 3 3 3 4 4 4 5 5 5 5 6 7 8 10 10 10 12 13 14 16 17 18 19 20 20 21 21 21 22
8 6 5 6 8 10 12 13 16 17 17 17 16 15 14 14 13 11 9 6 5 4 4 4 3 2 3 4 5 5 6 6 7 6 6 6 5 5 5 5 4 4 3 3 3 3 4 4 4 4 4 4 3 3 3 3 3 3 3 4 4 5 5 6 5 6 7 7 9 10 11 11 13 15 16 17 18 19 19 19 19 20 20 20 21
8 7 6 6 8 10 11 13 15 16 16 16 16 16 16 15 15 13 10 7 5 5 5 5 4 3 2 4 4 5 6 6 6 7 7 6 5 5 4 4 4 3 2 2 2 2 2 3 3 3 4 3 3 3 3 3 4 4 4 4 4 4 5 6 6 6 7 8 10 10 10 12 14 16 17 17 18 18 19 19 19 19 19 19 19
9 9 6 6 9 10 12 14 15 16 16 17 17 17 17 16 16 13 11 8 6 6 6 6 5 4 3 3 4 5 5 6 6 7 7 7 6 5 5 4 4 3 2 1 1 1 1 1 2 2 3 3 3 3 3 4 4 5 5 4 4 4 5 6 7 7 7 8 10 10 10 13 14 16 17 17 18 18 19 19 19 19 20 19 18
9 9 7 8 10 11 13 14 15 16 16 18 18 18 18 17 16 14 11 8 7 7 7 7 6 5 4 4 4 5 5 5 6 7 8 8 7 6 5 5 4 3 2 1 0 1 1 0 1 2 3 3 3 3 4 4 4 4 4 4 4 4 5 6 6 7 8 8 9 10 11 13 15 16 17 17 18 19 19 19 19 19 20 19 18
10 10 9 9 10 12 13 14 15 16 16 18 19 19 19 18 16 13 10 8 8 8 8 7 6 5 4 4 5 5 5 5 5 6 7 8 7 7 6 5 5 4 3 1 1 2 1 1 1 1 2 3 3 3 3 3 2 2 2 3 4 5 6 7 6 7 9 9 9 11 12 13 15 16 16 17 18 18 19 19 19 19 19 19 19
9 10 10 9 11 13 14 14 15 15 16 18 19 19 19 18 16 13 10 9 9 9 9 8 7 6 5 5 5 5 5 5 4 5 6 7 7 7 6 5 5 4 3 2 2 2 3 3 2 2 2 2 3 3 2 1 1 2 3 4 5 6 7 7 7 7 9 10 10 11 12 13 15 16 16 17 18 18 18 18 18 18 18 18 18
9 10 10 10 13 14 14 14 14 15 16 18 19 19 19 18 15 13 11 10 11 10 9 8 7 6 6 5 5 6 6 5 4 4 5 6 6 6 6 5 4 3 3 3 3 3 3 4 4 4 3 3 3 3 3 3 3 4 5 6 7 7 7 7 7 8 9 9 11 12 13 14 15 16 16 17 17 17 17 17 17 17 17 17 17
10 11 11 12 14 14 14 13 14 15 16 18 19 19 18 16 15 13 11 11 12 11 10 9 8 7 6 6 6 6 6 6 4 4 5 5 6 6 6 6 4 3 3 3 4 4 4 5 5 5 5 5 4 4 4 4 4 4 6 6 6 6 7 7 8 9 10 10 12 12 13 14 15 16 16 17 17 18 17 17 16 17 17 17 17
11 12 12 14 15 14 14 13 13 15 16 18 19 19 17 16 15 13 12 12 13 12 11 10 8 7 7 6 6 7 7 7 5 5 5 5 5 6 6 5 4 3 3 3 4 4 5 6 6 6 6 5 5 5 4 4 4 5 5 5 6 7 8 9 9 9 9 11 12 12 13 15 16 16 16 17 17 17 17 16 16 16 17 17 17
13 14 13 15 16 14 14 13 13 15 17 18 18 17 16 15 15 13 13 13 14 13 11 10 9 8 7 6 6 6 7 8 7 6 6 6 5 5 5 4 3 3 3 3 4 5 5 6 7 6 6 5 5 4 2 4 5 5 6 6 6 8 10 9 8 9 10 11 12 13 14 15 16 16 16 16 17 16 16 16 16 16 16 17 17
15 15 14 15 16 14 14 13 13 16 18 18 16 16 15 14 14 13 13 14 14 13 11 10 9 9 8 7 6 5 6 6 7 7 7 7 5 5 4 4 3 2 3 3 3 4 5 6 6 6 6 5 4 3 3 5 5 6 6 7 7 7 11 10 8 9 11 11 12 13 14 14 15 15 16 16 16 16 16 16 16 16 16 16 17
16 16 14 14 16 15 14 14 14 17 19 19 16 15 15 13 13 12 13 13 13 12 10 10 10 9 8 7 6 5 6 6 6 7 6 6 5 4 3 5 4 2 4 3 3 4 4 5 5 5 5 5 5 4 5 6 5 6 6 7 8 7 10 12 11 11 10 10 12 12 12 13 14 15 15 16 16 17 18 17 17 17 17 18 18
16 17 15 14 16 16 15 14 15 17 19 20 17 15 15 14 14 13 14 12 12 12 10 9 9 9 8 7 5 5 6 7 7 6 7 7 7 6 5 6 6 4 5 4 4 5 6 7 6 5 6 6 5 4 5 5 4 5 5 6 9 8 8 10 11 11 8 8 11 11 12 12 13 15 16 17 17 18 19 19 19 20 20 20 20
18 19 16 15 17 17 15 14 16 18 19 21 18 15 16 16 15 15 14 13 13 12 10 9 9 9 7 6 5 5 6 6 6 6 6 5 6 6 6 7 7 7 6 7 6 5 7 7 6 6 7 7 4 3 4 3 3 4 5 6 7 7 6 7 9 11 9 8 10 11 11 12 13 14 16 17 18 18 19 20 20 21 21 21 21
19 19 18 17 18 17 16 15 17 18 19 21 19 16 16 16 16 14 13 14 14 12 10 10 9 8 7 6 6 6 6 5 5 6 6 5 5 6 6 7 8 8 7 8 7 6 7 6 5 6 4 5 4 2 3 3 3 4 5 6 6 5 5 7 9 10 10 8 9 11 12 13 14 15 16 17 18 19 19 20 20 21 21 22 22
20 20 20 18 18 18 16 15 17 18 19 20 18 16 16 16 15 14 13 14 14 12 11 10 9 9 8 7 6 6 6 5 5 6 6 5 5 5 6 7 8 8 8 7 7 6 7 6 5 5 3 4 4 3 4 4 4 4 5 5 5 5 5 7 9 10 10 8 8 11 12 13 14 15 16 18 19 19 20 21 21 22 22 23 23
21 21 22 20 17 18 16 15 17 19 19 19 18 17 15 14 13 12 13 14 14 12 11 10 9 10 9 7 6 6 5 5 5 6 5 4 5 5 6 8 8 7 8 7 6 6 6 5 4 4 4 4 3 3 4 4 5 5 5 4 4 5 6 7 8 9 11 10 9 10 12 13 15 16 17 18 20 21 22 23 23 24 24 24 24
22 23 23 20 18 18 17 16 17 20 20 18 17 16 14 13 12 12 14 14 14 13 11 10 10 11 9 7 7 6 5 5 6 6 5 5 5 5 7 8 8 8 8 6 5 4 4 4 3 2 3 3 3 4 4 4 5 5 4 4 5 6 7 7 8 9 11 13 12 12 12 13 14 17 19 20 21 22 24 24 25 25 26 26 26
23 24 24 20 17 18 17 17 18 20 21 18 15 14 13 13 13 13 14 14 14 13 12 10 11 12 10 8 8 7 6 6 7 7 5 5 5 6 7 7 8 7 7 5 4 3 3 3 3 3 3 3 4 4 5 4 4 4 4 5 6 6 7 7 8 9 11 13 14 15 15 16 16 17 20 21 22 23 25 26 27 27 27 27 27
24 24 24 20 18 18 17 18 19 20 21 19 17 15 14 14 14 14 15 14 13 12 11 11 12 13 10 9 9 8 7 7 7 7 5 5 5 5 6 7 7 7 5 5 4 4 4 3 4 4 4 4 5 5 5 3 3 5 6 6 7 7 8 8 9 10 12 13 14 16 17 19 19 20 21 22 23 25 26 27 28 29 29 28 27
26 25 23 19 18 18 18 19 19 20 20 20 19 17 15 15 15 15 15 14 13 12 12 13 13 12 11 10 10 9 8 8 8 7 5 5 5 5 7 7 7 6 5 5 5 5 5 5 5 5 5 5 5 5 4 4 4 5 6 7 7 8 9 9 10 11 12 14 15 17 18 19 21 22 23 23 24 26 27 28 29 29 29 28 27
28 26 23 19 19 19 18 18 18 18 19 19 19 18 17 16 16 16 16 15 14 13 13 13 13 13 12 11 12 11 9 9 8 6 5 5 5 6 7 7 7 6 6 6 6 6 7 7 6 6 6 5 5 5 4 5 5 6 7 8 8 9 10 11 12 13 14 15 16 18 19 20 21 23 24 25 26 27 28 29 29 29 28 28 28
28 25 22 20 21 19 18 17 17 17 18 19 19 19 19 18 17 17 16 15 14 14 14 14 14 13 12 12 14 11 9 9 8 6 5 5 5 6 6 6 6 6 6 7 7 7 7 7 6 6 5 5 5 4 4 5 6 7 7 8 10 10 11 12 13 14 15 17 18 19 20 21 22 23 24 25 27 28 28 29 29 28 28 28 28
27 24 22 22 21 19 18 17 17 18 19 20 20 20 20 19 18 17 17 16 15 14 14 14 14 14 13 14 13 7 7 9 8 7 6 6 6 7 7 6 6 7 7 7 8 7 7 6 5 5 4 5 5 5 5 6 6 8 8 10 11 12 13 14 15 16 17 18 19 20 21 21 23 24 24 26 27 28 29 29 28 28 28 28 29
27 25 23 23 21 18 18 18 18 19 20 21 21 20 19 19 19 18 17 17 16 14 14 14 14 14 13 12 10 6 7 10 9 8 7 6 6 7 6 6 7 8 8 7 7 7 6 6 5 5 4 5 5 5 6 7 8 9 10 11 12 13 14 15 16 17 18 19 20 20 21 22 23 24 25 26 27 28 28 28 28 28 28 29 29
29 27 25 23 21 19 19 18 19 20 21 21 21 21 21 19 18 18 18 18 17 15 14 14 14 13 13 12 11 9 10 10 10 10 8 7 7 7 6 6 7 7 7 7 7 7 6 6 5 5 5 5 6 6 7 8 9 10 11 12 13 14 15 16 17 18 18 19 20 21 21 22 23 24 25 26 27 27 27 27 27 28 29 29 29
29 28 25 23 21 20 19 19 20 21 21 21 21 20 20 18 17 19 19 17 17 16 15 15 15 14 13 13 13 11 11 12 12 11 9 8 7 7 6 6 7 7 7 8 7 7 7 6 6 5 6 6 7 7 8 9 11 11 12 13 14 15 16 16 17 18 19 19 20 21 22 22 23 24 25 26 26 26 26 26 27 28 29 29 30
30 29 25 23 21 19 19 19 21 22 22 22 21 20 18 18 19 19 17 16 16 16 15 16 15 14 14 14 14 12 12 13 13 12 10 9 8 6 6 6 7 7 8 8 8 7 6 6 6 6 6 7 7 8 9 11 12 12 13 14 15 15 16 16 17 17 18 19 20 20 21 22 24 25 25 25 25 25 25 26 27 28 29 29 30
31 29 26 24 20 17 18 19 21 22 21 20 19 20 19 19 20 18 16 16 17 18 17 16 16 16 16 16 14 14 14 14 13 12 10 9 8 6 6 6 7 7 7 7 7 6 6 6 5 6 6 8 9 9 10 12 13 14 15 16 15 15 15 15 16 17 18 19 20 20 21 22 24 24 25 25 25 25 26 27 27 28 29 29 29
32 30 27 24 21 18 17 18 22 23 20 19 20 21 21 21 21 18 18 19 20 21 19 17 18 18 17 16 15 15 14 14 13 12 10 9 8 6 6 6 6 6 6 6 6 5 5 6 6 7 8 9 10 11 11 13 14 15 16 16 16 17 16 15 16 17 18 18 19 20 21 22 23 24 24 25 25 25 26 27 27 28 28 28 28
33 29 25 22 20 19 16 17 22 23 22 23 24 24 22 22 22 21 21 21 21 21 20 18 19 19 18 17 16 15 15 15 14 12 10 9 8 8 7 7 6 6 6 6 6 6 6 7 7 8 9 10 11 12 12 13 14 15 15 14 14 15 16 16 16 17 17 18 19 20 22 22 23 24 24 25 26 27 27 27 27 27 27 27 28
32 26 24 22 19 16 15 17 20 21 23 26 26 25 23 22 24 23 23 22 21 21 20 19 20 20 20 19 16 16 16 15 14 12 11 9 9 9 8 7 6 6 6 6 7 8 8 9 9 10 10 11 11 12 13 13 14 14 14 13 12 13 14 15 16 17 17 18 20 21 22 22 23 23 24 24 25 26 27 27 27 27 27 27 28
30 26 26 24 19 17 18 18 19 19 22 26 27 26 25 25 25 27 27 24 24 26 25 22 22 22 21 20 17 17 17 16 14 12 11 11 10 9 7 5 4 5 7 8 9 10 10 11 11 11 11 11 12 13 13 13 13 13 12 12 12 12 13 14 16 18 19 19 19 20 21 21 22 22 23 24 24 24 25 25 26 26 27 28 29
29 27 26 24 21 19 20 19 19 20 22 24 26 26 27 28 26 26 27 25 25 29 28 24 24 24 22 20 18 17 17 16 14 13 12 11 10 7 5 4 6 9 10 10 11 11 12 12 12 12 12 12 13 13 13 13 12 12 11 11 11 11 12 14 16 18 20 21 20 19 19 19 20 21 22 22 22 23 23 24 25 26 28 29 30
30 28 26 24 21 19 20 21 21 20 22 23 24 25 27 27 24 24 24 22 24 28 27 26 26 26 22 19 19 18 18 16 14 13 12 11 8 7 7 9 12 13 12 11 12 13 13 13 13 12 12 13 13 13 12 12 11 11 11 10 11 12 13 15 17 18 18 19 21 21 21 20 19 20 21 22 23 23 23 23 25 27 28 29 30
31 27 25 23 21 19 19 20 21 20 23 24 24 25 24 23 23 23 22 21 22 25 25 25 25 26 23 20 20 20 18 17 15 14 12 11 9 9 11 14 13 12 11 12 13 13 13 13 13 13 13 13 13 12 11 11 10 10 10 11 11 12 14 16 17 17 16 17 18 20 22 22 22 21 21 23 24 24 25 25 25 26 28 29 31
30 26 24 23 21 20 18 18 20 21 23 23 23 23 21 21 21 21 20 20 21 22 22 22 22 21 22 22 22 21 18 17 16 14 13 13 13 14 14 14 12 11 12 13 13 13 13 13 13 13 13 13 12 11 10 10 10 10 10 11 12 13 15 16 16 16 16 16 17 18 19 21 22 23 22 21 22 24 25 26 26 27 28 29 30
Wind_Direction
217 200 183 164 151 139 126 112 96 90 85 80 76 76 74 74 71 69 65 62 59 54 48 41 40 39 40 42 43 43 43 45 47 46 43 41 39 40 40 43 46 49 54 56 61 67 81 94 100 102 101 99 98 100 101 104 105 107 108 109 114 118 120 121 120 114 108 102 99 100 99 95 90 84 76 72 67 64 60 57 54 42 46 50 40
221 211 199 185 170 149 137 126 107 99 91 85 79 78 75 74 72 70 65 62 60 56 50 43 40 36 36 39 40 38 38 39 42 44 43 41 37 37 37 39 43 48 53 58 64 68 81 95 101 102 100 99 98 101 103 104 104 104 105 106 111 114 117 116 112 104 96 91 89 91 93 91 84 77 67 60 57 54 52 48 44 37 39 38 31
214 218 210 204 191 169 154 143 126 111 99 94 83 79 75 74 72 70 65 62 61 56 51 44 40 36 34 36 37 35 34 35 37 39 41 40 38 36 34 34 37 43 51 59 65 71 82 91 97 100 98 98 99 103 105 105 105 104 105 106 109 111 112 108 105 99 94 91 86 82 81 80 74 67 57 48 43 39 36 34 30 28 27 25 19
205 220 217 217 207 196 177 162 151 132 116 105 91 83 74 72 70 68 64 61 61 57 51 45 40 36 34 34 35 32 31 33 34 35 37 39 39 36 34 33 33 36 43 54 64 72 80 87 91 95 95 97 101 104 106 106 106 106 107 108 109 109 106 101 99 96 95 89 84 78 71 70 64 57 50 38 29 24 22 21 18 15 12 10 7
220 225 218 225 219 213 198 183 175 160 141 123 108 93 75 70 67 64 61 59 62 58 51 45 40 38 36 34 32 30 30 31 32 33 34 37 38 37 35 33 32 33 37 46 58 68 77 86 90 93 95 98 103 106 106 107 107 108 109 110 110 108 105 100 97 95 91 85 84 72 63 65 55 41 36 29 18 13 11 9 5 2 360 358 357
241 229 224 228 226 223 215 204 193 183 169 150 136 118 86 69 64 59 54 55 62 58 51 44 39 39 38 36 32 29 29 29 32 31 32 34 38 39 36 35 33 31 33 39 47 59 71 82 91 95 98 104 108 110 110 110 109 109 110 111 110 107 105 103 101 96 87 80 76 60 57 58 50 33 20 17 8 3 358 355 353 352 350 349 348
217 229 233 227 227 228 224 218 210 200 190 178 169 163 128 81 61 51 40 46 60 58 49 41 37 39 40 37 31 27 27 27 31 30 30 31 36 41 40 39 35 32 32 34 41 50 64 78 90 96 102 109 112 113 113 111 109 109 109 110 109 106 103 100 96 91 84 70 56 51 45 32 37 27 10 5 356 353 348 345 345 344 342 341 341
145 231 237 228 226 227 230 228 223 214 205 200 195 199 188 178 67 39 19 32 52 54 45 38 33 35 40 38 31 26 25 24 28 29 28 28 32 39 42 42 39 35 33 34 37 45 56 72 86 97 105 112 115 116 114 112 109 109 109 109 108 105 103 99 93 85 76 59 49 42 21 3 14 13 1 353 347 345 342 340 339 337 336 337 337
171 232 241 229 224 226 231 232 230 225 217 214 212 218 217 217 221 8 352 11 41 46 39 34 30 30 36 37 31 24 21 21 24 26 25 25 27 33 41 44 43 39 36 36 36 41 49 63 81 96 106 114 116 117 115 111 110 110 110 109 108 107 104 98 91 79 59 45 46 35 5 348 354 358 350 343 341 339 337 336 333 332 333 334 333
213 234 247 224 223 227 230 234 234 231 226 222 221 226 229 232 229 265 307 331 23 36 26 25 25 25 31 33 30 23 20 18 19 22 21 21 21 26 36 43 45 42 38 38 37 40 46 57 75 91 104 113 116 117 115 112 111 111 110 109 110 107 103 95 83 63 33 28 31 18 346 331 339 345 342 341 338 335 334 332 330 330 330 331 330
265 244 262 218 225 231 230 234 235 234 231 227 227 231 236 239 235 242 271 288 346 16 4 1 17 21 22 26 25 19 18 16 14 17 18 18 18 19 26 38 44 41 38 37 39 41 47 56 69 86 100 108 114 117 117 115 113 111 110 109 107 103 97 83 62 26 19 16 3 355 339 332 338 341 340 339 334 332 331 329 328 328 327 327 328
279 264 288 198 229 234 232 235 235 236 233 229 230 233 239 242 239 237 253 264 283 330 331 321 358 14 13 16 18 16 15 13 10 11 17 17 15 16 18 29 38 37 33 33 37 39 47 58 68 81 93 102 109 114 117 117 113 111 107 103 99 92 71 45 24 10 11 5 353 347 341 339 341 340 337 334 331 329 327 326 326 325 326 327 328
278 284 293 211 233 236 235 238 237 237 235 231 230 232 238 242 241 238 245 251 254 277 290 292 318 357 4 5 7 10 10 8 6 4 12 16 15 15 14 23 33 33 27 24 32 36 44 60 73 82 91 99 104 109 114 113 112 108 99 92 84 66 43 24 15 14 3 356 353 342 336 336 335 334 333 329 326 325 324 324 324 325 326 327 328
277 289 273 238 240 239 239 241 239 239 236 232 231 232 235 239 240 238 240 239 240 256 269 276 281 321 352 354 357 2 4 4 1 359 3 12 15 14 12 18 29 33 27 18 22 32 40 57 74 84 92 98 103 105 103 103 103 95 86 76 66 52 35 16 11 13 1 352 348 340 330 326 327 330 329 327 325 323 323 324 325 326 327 327 327
274 282 267 249 245 245 245 244 242 240 237 233 231 230 232 235 236 236 236 233 232 243 256 262 263 285 331 340 347 353 357 359 355 351 353 3 9 10 12 11 25 35 34 21 15 24 33 48 68 84 93 96 97 93 89 86 77 73 69 58 50 39 21 5 2 360 354 346 341 336 323 321 327 328 329 327 325 323 323 324 326 325 325 326 325
268 275 267 250 250 254 250 247 242 240 237 233 230 228 230 233 235 234 231 229 229 237 247 252 255 265 300 323 334 344 351 353 350 345 342 350 356 0 6 6 16 30 39 31 10 15 26 39 57 78 89 92 86 78 73 66 61 60 54 50 37 22 5 353 353 345 344 339 329 323 314 321 327 327 329 326 323 322 323 324 324 323 323 323 322
263 271 268 254 257 259 254 250 242 237 232 228 228 227 229 231 234 233 228 227 227 237 244 249 252 256 276 307 321 334 343 346 345 341 336 339 347 352 358 1 5 15 29 30 6 354 2 36 59 76 88 88 80 67 55 46 42 40 33 32 20 1 342 337 340 329 330 331 320 318 319 322 324 325 326 324 322 322 323 326 326 326 324 324 323
259 268 269 259 259 262 260 253 242 236 230 227 226 225 227 230 233 233 230 227 229 239 243 247 251 254 267 291 312 323 332 340 344 340 334 333 340 346 351 356 354 358 358 355 317 269 269 262 84 91 97 92 86 69 52 40 29 23 13 4 348 327 319 318 324 322 319 317 312 319 323 320 322 325 325 323 322 322 326 328 328 327 325 324 324
253 263 267 262 261 263 262 255 244 236 231 228 226 225 226 227 230 232 230 229 233 239 243 247 251 254 265 283 299 313 323 332 341 339 332 328 333 336 343 348 343 342 332 320 277 248 233 225 190 140 124 110 104 90 69 53 29 3 339 320 302 302 307 307 320 324 311 308 312 318 321 320 323 324 325 323 322 324 328 330 329 328 325 323 324
248 260 267 265 261 262 262 258 247 237 233 228 226 225 226 226 226 227 226 228 234 239 242 246 252 255 263 278 293 305 315 321 329 333 324 319 324 328 333 340 337 331 316 293 266 243 235 234 215 195 175 147 132 124 116 113 256 278 287 288 294 302 307 314 324 316 303 312 321 322 324 324 324 325 325 324 325 329 333 334 332 331 328 324 324
247 257 265 265 260 262 263 258 248 239 234 228 225 225 225 226 225 224 222 226 233 237 240 244 248 254 261 272 288 297 304 307 313 320 312 311 316 321 323 329 333 322 301 275 256 239 234 236 226 217 208 197 183 174 182 212 244 267 283 292 300 303 311 319 315 306 309 321 324 324 327 326 326 327 328 329 332 336 338 338 336 333 330 326 324
242 251 258 261 258 261 261 258 249 240 235 228 225 227 225 224 226 225 224 228 233 236 238 241 244 248 255 265 280 291 296 294 302 309 302 306 310 315 318 322 328 317 294 264 249 241 237 234 232 227 226 228 223 221 228 241 256 271 283 294 299 307 317 311 308 314 321 323 323 328 331 329 330 333 335 338 339 341 341 339 337 333 329 327 324
233 245 249 254 257 257 257 257 247 238 233 228 225 227 224 222 226 225 225 230 233 235 236 239 243 245 249 259 274 288 293 293 300 302 294 296 302 306 306 310 319 316 296 267 250 243 241 236 233 232 234 239 244 249 258 265 273 279 287 302 307 320 312 303 317 323 323 323 326 334 334 335 337 339 341 341 340 339 338 337 336 333 329 326 323
227 241 244 249 254 252 254 254 244 233 228 225 222 222 220 219 225 225 224 228 231 233 234 236 241 243 247 254 266 284 291 296 300 295 287 287 293 297 299 305 311 310 298 275 255 246 244 242 240 240 242 243 256 270 278 281 297 296 301 313 312 321 307 306 328 321 326 330 330 338 338 340 341 340 340 338 336 335 334 335 335 333 328 324 322
225 239 244 245 251 250 250 251 241 230 224 219 215 217 216 214 219 223 223 225 229 232 235 236 238 243 247 251 262 280 283 286 292 290 286 288 290 292 301 297 285 285 283 267 251 252 245 241 242 244 247 244 255 265 247 266 291 294 303 309 304 320 314 316 333 324 335 336 331 339 340 341 339 337 336 334 332 331 331 332 332 330 326 324 322
226 239 247 245 249 249 247 247 240 231 224 216 210 213 212 211 216 220 224 225 229 231 232 235 239 244 249 254 265 276 275 275 277 280 291 304 306 299 295 284 277 263 262 248 230 252 246 236 236 239 247 247 250 251 245 254 272 284 299 308 311 335 327 322 332 330 337 337 332 338 339 339 336 334 333 330 330 329 330 330 329 327 324 323 322
229 241 247 244 246 247 246 244 237 232 227 217 209 208 207 212 217 220 223 224 230 230 228 235 242 244 247 254 262 265 273 283 291 300 316 327 326 323 316 302 302 293 272 256 227 229 236 230 223 221 230 232 224 229 248 251 262 285 300 311 318 336 327 318 323 322 331 339 331 336 339 335 332 331 330 329 331 332 332 331 330 328 325 324 320
229 242 248 245 245 246 244 241 235 233 230 221 211 205 208 212 215 219 222 224 229 229 227 235 243 243 244 248 253 261 270 285 302 313 316 312 309 308 301 295 294 288 279 273 259 246 247 240 230 229 235 244 228 211 251 263 277 290 301 310 316 322 317 311 312 314 329 341 330 333 334 330 330 330 330 331 334 335 335 334 332 330 328 324 321
231 243 248 245 244 245 242 236 234 232 229 226 217 208 211 213 214 216 220 229 231 228 228 231 239 242 241 245 249 260 268 274 289 293 287 282 284 283 282 283 282 281 280 279 283 284 276 276 269 255 259 282 286 284 286 302 309 304 308 307 307 309 307 308 311 315 325 336 329 327 327 328 332 332 334 336 337 338 338 337 335 333 330 327 325
236 244 247 247 244 242 237 231 230 230 227 226 221 212 212 212 214 215 220 230 232 229 229 227 238 244 242 245 253 260 263 268 276 276 271 266 272 274 273 275 277 281 282 283 288 288 285 292 286 279 296 300 308 324 314 319 317 310 302 293 289 294 302 305 309 310 313 325 325 321 325 330 333 335 337 338 339 340 340 339 338 336 334 332 330
239 245 247 248 244 238 232 227 226 226 222 220 220 216 213 213 216 219 226 233 232 231 229 225 235 245 244 243 254 260 257 263 268 266 260 258 267 269 270 272 274 277 279 284 285 280 282 287 290 298 308 305 313 318 310 312 304 294 283 277 277 287 298 299 298 300 305 316 322 323 327 331 333 335 337 338 339 339 340 340 338 337 336 334 332
241 246 247 247 243 236 229 223 222 223 222 219 219 218 215 216 219 221 229 234 232 232 231 228 233 242 242 243 251 252 249 257 261 260 255 258 265 268 272 275 273 270 272 276 279 280 276 276 283 288 284 280 280 280 285 281 273 273 269 270 279 286 291 291 292 297 303 311 319 325 328 330 332 333 335 336 337 338 338 338 338 338 337 335 332
243 244 245 247 240 233 227 220 220 222 221 216 214 217 214 214 220 221 227 233 233 234 235 232 236 240 238 238 242 239 243 250 254 257 255 259 269 271 273 273 270 268 270 272 273 271 261 262 266 262 264 265 266 271 272 259 258 270 272 273 280 285 286 288 292 296 303 310 318 325 327 328 329 331 333 334 334 335 336 337 337 337 336 334 332
243 243 244 247 237 231 226 220 219 219 217 213 208 211 211 213 219 222 227 232 232 233 234 234 237 240 235 231 232 232 237 241 247 250 247 260 268 269 266 264 265 265 265 264 260 257 254 257 260 260 267 266 260 260 257 250 261 268 270 277 282 286 288 289 293 297 305 313 319 323 325 326 327 329 331 332 332 333 335 336 336 335 333 332 331
241 242 242 243 234 230 227 221 220 217 214 212 208 209 210 212 218 223 228 231 229 230 233 236 237 239 234 226 224 224 228 233 241 244 239 251 260 263 262 257 256 258 258 256 251 253 253 249 247 249 256 256 252 251 252 255 258 257 264 277 284 288 289 290 293 300 308 315 318 320 322 323 325 327 329 330 331 333 334 334 333 332 331 330 330
240 242 242 238 231 230 225 220 219 217 215 215 212 211 211 212 216 222 226 227 227 230 233 236 237 239 237 229 223 216 216 228 236 239 233 238 250 259 256 249 250 252 253 252 245 248 252 251 250 246 244 247 251 249 249 253 257 261 271 280 285 287 287 290 295 303 310 313 317 320 321 322 324 326 327 330 331 332 333 332 331 329 328 329 330
239 242 239 235 233 228 220 218 217 216 217 218 216 216 216 214 215 219 224 226 228 231 233 235 234 235 235 233 228 211 203 224 231 227 222 228 243 252 248 243 250 252 250 249 247 249 251 250 248 242 237 241 247 246 248 253 262 271 278 283 286 289 290 294 298 303 308 312 317 320 321 322 324 326 327 329 331 331 330 329 328 328 329 330 331
238 238 234 232 233 224 217 217 215 217 219 222 222 220 218 218 217 219 225 228 228 229 231 231 230 230 230 234 233 212 202 223 227 221 221 230 241 248 250 251 256 255 248 245 245 241 237 233 229 226 227 233 240 248 257 265 273 280 286 290 293 296 296 298 300 302 308 313 318 320 320 322 323 325 327 329 330 329 328 327 327 329 331 332 333
234 234 231 231 231 221 216 217 218 221 222 221 221 219 219 218 218 221 226 229 228 227 227 227 229 229 229 237 242 231 224 226 223 223 227 235 242 249 258 262 258 251 242 236 230 220 214 217 218 220 228 240 253 265 274 280 286 290 294 297 298 298 299 299 301 304 310 314 316 318 319 321 323 325 328 329 328 327 327 328 330 331 333 333 334
231 232 231 231 228 217 215 220 223 224 223 222 220 219 220 217 219 225 228 231 232 230 226 225 229 228 226 232 234 228 227 226 222 226 234 242 247 252 258 260 252 239 228 218 208 204 204 210 219 228 242 256 268 276 283 288 291 294 296 297 297 299 301 302 304 308 310 312 314 316 319 321 324 327 327 327 327 327 329 331 332 333 334 334 334
230 230 229 229 226 217 217 224 225 225 226 230 229 226 225 222 223 226 226 231 235 234 230 227 228 224 220 225 229 226 224 223 222 228 240 251 255 255 255 252 238 218 205 200 196 200 204 212 225 238 253 264 273 279 286 290 292 295 297 298 301 302 304 305 306 308 309 312 314 317 321 323 325 325 325 327 328 330 331 332 333 334 335 336 336
230 227 225 225 223 220 223 228 230 229 227 230 232 231 230 230 231 229 228 233 236 233 228 227 227 221 218 223 227 226 221 220 223 230 243 256 255 248 242 232 217 203 196 195 196 201 208 218 232 246 260 271 281 287 292 293 294 296 297 298 301 303 304 306 307 308 311 313 317 320 323 324 324 325 326 329 330 332 333 334 335 337 338 338 338
230 227 224 222 222 223 228 232 233 233 231 231 232 232 232 234 237 236 234 233 232 230 226 224 224 221 219 221 223 223 220 220 224 231 243 252 247 237 226 214 205 201 200 200 204 210 220 233 249 264 277 286 291 295 295 296 297 299 299 300 301 302 304 306 307 310 314 317 321 323 323 324 325 327 329 331 332 333 335 337 339 340 340 340 339
228 226 225 223 224 227 232 238 239 236 235 236 236 234 233 233 236 238 233 230 231 230 225 222 222 221 219 220 222 222 220 221 226 233 243 247 241 231 221 213 208 205 207 213 219 227 241 254 270 280 287 292 293 295 294 295 299 301 304 306 306 305 306 308 310 314 318 321 322 322 322 325 327 329 331 333 334 335 337 339 341 342 341 340 338
228 227 227 228 230 230 232 244 247 241 236 236 237 237 235 234 237 238 236 235 236 233 226 223 224 222 219 219 220 220 220 222 227 235 243 244 238 228 218 213 214 215 222 232 240 250 261 270 279 285 289 292 292 293 294 295 298 301 304 307 307 307 311 314 315 319 321 320 320 321 325 327 329 331 333 335 336 337 340 342 343 343 341 340 339
229 229 232 237 239 234 228 236 245 244 237 233 234 238 239 239 239 239 239 239 241 239 230 225 225 223 220 216 215 217 218 220 225 234 240 236 227 222 214 212 218 226 237 248 259 266 273 278 282 288 291 291 292 292 294 295 297 299 301 302 303 306 313 318 318 319 320 320 323 325 328 330 332 335 336 337 339 341 343 344 344 343 342 341 340
229 227 231 237 241 236 229 231 239 243 238 231 231 236 239 242 246 246 245 241 240 238 231 226 225 225 223 216 212 215 216 218 224 231 236 228 218 214 210 213 231 251 260 263 270 275 279 283 287 291 291 291 293 292 293 295 296 297 298 301 304 309 316 318 318 320 320 322 325 327 330 333 335 336 338 339 342 345 346 345 344 343 342 343 343
228 227 229 234 239 238 232 231 236 239 235 229 229 234 237 241 247 248 248 245 238 230 226 225 224 225 224 215 211 214 214 216 221 226 228 217 208 209 213 231 250 254 259 263 271 277 281 286 289 291 291 292 293 293 293 295 296 298 301 306 310 313 316 317 320 323 324 325 327 329 331 333 335 338 340 342 345 347 347 346 344 344 345 346 346
226 225 227 232 236 236 232 231 234 234 228 222 224 228 232 236 240 244 247 245 231 222 223 227 226 226 222 213 212 213 212 214 217 219 216 206 203 215 229 239 241 244 253 264 273 279 284 288 289 290 291 291 291 292 294 296 299 302 306 309 310 311 314 318 322 326 328 328 328 330 331 333 337 340 342 344 345 345 345 347 347 347 348 348 347
226 225 225 231 235 233 231 230 229 227 221 217 218 221 225 230 235 241 240 233 224 223 229 233 232 229 219 211 210 210 209 212 213 211 207 208 217 227 234 238 240 247 259 270 277 282 286 287 289 290 291 290 290 292 296 299 303 305 306 307 308 313 317 322 325 328 330 328 327 330 333 336 339 343 347 347 345 345 347 350 352 351 350 349 350
224 225 225 229 234 233 231 226 222 221 218 215 215 217 223 229 234 235 229 225 225 227 232 234 234 228 215 207 205 205 207 210 212 210 207 214 222 228 236 241 248 258 268 276 281 284 286 286 289 289 289 289 290 294 297 300 302 302 304 307 313 319 323 325 327 328 328 327 328 331 335 340 342 343 346 346 344 347 352 354 353 352 352 352 351
Height
3178 3179 3179 3178 3178 3178 3178 3179 3179 3179 3178 3178 3178 3178 3177 3177 3178 3177 3178 3178 3177 3177 3178 3178 3178 3177 3177 3176 3175 3175 3176 3176 3175 3175 3175 3174 3174 3173 3172 3172 3172 3171 3171 3171 3171 3171 3171 3171 3171 3171 3171 3171 3171 3171 3171 3172 3172 3172 3172 3172 3173 3174 3174 3174 3175 3175 3175 3175 3175 3176 3176 3176 3176 3176 3176 3175 3175 3175 3175 3175 3175 3174 3173 3173 3173
3179 3179 3178 3178 3178 3178 3179 3179 3179 3179 3179 3179 3179 3178 3178 3178 3178 3178 3178 3178 3178 3178 3178 3178 3178 3178 3177 3177 3176 3176 3176 3176 3176 3176 3176 3175 3175 3174 3173 3173 3172 3172 3172 3172 3172 3171 3172 3172 3172 3172 3172 3172 3172 3172 3172 3172 3173 3173 3173 3173 3174 3174 3175 3175 3176 3176 3176 3176 3177 3177 3176 3176 3176 3176 3176 3176 3176 3176 3176 3176 3176 3175 3174 3174 3174
3179 3179 3178 3178 3178 3178 3179 3179 3180 3180 3180 3179 3179 3179 3179 3179 3179 3179 3179 3179 3179 3178 3179 3179 3179 3179 3178 3178 3177 3177 3177 3177 3177 3177 3177 3176 3176 3175 3175 3174 3173 3173 3173 3172 3172 3172 3172 3172 3172 3172 3173 3173 3173 3173 3173 3173 3173 3173 3174 3174 3175 3175 3176 3176 3177 3177 3177 3177 3178 3177 3177 3177 3177 3177 3177 3177 3177 3177 3177 3177 3176 3176 3176 3175 3174
3179 3178 3178 3178 3178 3179 3179 3179 3180 3180 3180 3180 3180 3180 3180 3180 3180 3180 3180 3179 3179 3179 3179 3179 3179 3179 3179 3178 3178 3178 3178 3178 3178 3178 3178 3177 3177 3176 3176 3175 3174 3174 3173 3173 3173 3173 3173 3173 3173 3173 3173 3174 3174 3174 3174 3174 3174 3174 3175 3175 3176 3176 3177 3177 3178 3178 3178 3178 3178 3178 3178 3178 3178 3178 3178 3178 3178 3178 3178 3177 3177 3177 3176 3175 3175
3178 3178 3178 3178 3178 3179 3179 3179 3180 3180 3180 3180 3180 3180 3180 3180 3180 3180 3180 3180 3179 3179 3179 3179 3180 3180 3179 3178 3178 3179 3179 3178 3178 3178 3178 3178 3178 3177 3177 3176 3176 3175 3175 3174 3174 3173 3173 3173 3173 3174 3174 3174 3174 3175 3175 3175 3175 3175 3176 3176 3177 3177 3178 3178 3179 3179 3179 3179 3179 3179 3178 3178 3179 3179 3179 3179 3179 3179 3178 3178 3177 3177 3176 3175 3175
3178 3178 3178 3178 3178 3179 3179 3179 3180 3180 3180 3180 3180 3180 3181 3181 3180 3180 3181 3181 3180 3179 3180 3180 3180 3180 3179 3179 3179 3179 3179 3179 3179 3179 3179 3179 3179 3178 3178 3177 3177 3176 3176 3175 3175 3174 3174 3174 3174 3174 3174 3175 3175 3175 3175 3176 3176 3176 3177 3177 3178 3178 3179 3179 3179 3180 3180 3180 3180 3179 3179 3179 3179 3179 3180 3180 3179 3179 3179 3178 3177 3177 3176 3175 3175
3178 3178 3178 3177 3178 3178 3179 3179 3180 3180 3180 3180 3180 3180 3181 3181 3181 3181 3181 3181 3180 3180 3180 3180 3180 3180 3179 3179 3179 3179 3179 3179 3179 3179 3179 3179 3179 3179 3178 3178 3177 3177 3177 3176 3175 3175 3175 3175 3175 3175 3175 3175 3176 3176 3176 3176 3177 3177 3178 3178 3179 3179 3179 3180 3180 3181 3181 3181 3180 3180 3180 3180 3179 3180 3180 3180 3180 3179 3178 3178 3177 3176 3176 3175 3174
3177 3178 3177 3177 3178 3178 3179 3179 3180 3180 3180 3180 3180 3180 3180 3181 3181 3181 3181 3181 3181 3180 3180 3180 3181 3180 3179 3179 3179 3179 3179 3179 3179 3179 3179 3179 3179 3179 3179 3178 3178 3178 3177 3177 3176 3176 3176 3176 3176 3175 3176 3176 3176 3177 3177 3177 3178 3178 3179 3179 3180 3180 3180 3181 3181 3181 3181 3181 3181 3180 3180 3180 3180 3180 3180 3180 3179 3179 3178 3177 3177 3176 3175 3175 3174
3177 3177 3176 3177 3177 3178 3179 3179 3179 3180 3180 3180 3180 3180 3180 3180 3180 3181 3181 3182 3181 3180 3180 3181 3181 3180 3180 3179 3179 3180 3180 3180 3180 3180 3180 3180 3180 3180 3179 3179 3178 3178 3178 3178 3177 3177 3177 3177 3176 3176 3177 3177 3177 3177 3178 3178 3179 3179 3180 3180 3180 3181 3181 3181 3181 3181 3181 3181 3181 3181 3181 3180 3180 3180 3180 3180 3179 3179 3178 3177 3176 3175 3175 3174 3173
3177 3176 3176 3177 3177 3177 3178 3179 3179 3179 3179 3180 3180 3180 3180 3180 3180 3181 3181 3181 3181 3180 3180 3181 3181 3181 3180 3180 3180 3180 3180 3180 3180 3180 3180 3180 3180 3180 3180 3179 3179 3179 3178 3178 3178 3178 3177 3177 3177 3177 3177 3178 3178 3178 3178 3179 3179 3180 3180 3181 3181 3181 3182 3182 3182 3182 3182 3181 3181 3181 3181 3181 3180 3180 3180 3179 3179 3178 3177 3177 3176 3175 3174 3173 3172
3176 3176 3176 3177 3177 3177 3178 3178 3178 3179 3179 3179 3180 3180 3180 3180 3180 3181 3181 3181 3181 3180 3181 3181 3181 3181 3181 3180 3180 3180 3180 3180 3180 3180 3181 3181 3180 3181 3180 3180 3180 3179 3179 3179 3178 3178 3178 3178 3178 3178 3178 3178 3179 3179 3179 3179 3180 3180 3181 3181 3182 3182 3182 3182 3182 3182 3182 3182 3181 3181 3181 3180 3180 3180 3180 3179 3178 3178 3177 3176 3175 3174 3173 3172 3171
3176 3175 3176 3177 3177 3177 3177 3177 3178 3178 3179 3179 3179 3180 3180 3180 3180 3181 3181 3181 3181 3181 3181 3182 3182 3181 3181 3181 3181 3181 3181 3181 3181 3181 3181 3181 3181 3181 3181 3181 3180 3180 3180 3180 3179 3179 3179 3178 3178 3179 3179 3179 3179 3180 3180 3180 3181 3181 3181 3182 3182 3182 3182 3183 3182 3182 3182 3182 3181 3181 3181 3180 3180 3180 3179 3179 3178 3177 3176 3175 3174 3173 3172 3172 3170
3175 3175 3176 3176 3176 3176 3176 3176 3177 3177 3178 3178 3179 3179 3179 3180 3180 3180 3181 3181 3181 3181 3181 3182 3182 3181 3181 3181 3181 3181 3181 3181 3181 3181 3181 3181 3181 3181 3181 3181 3181 3181 3180 3180 3180 3180 3179 3179 3179 3179 3179 3180 3180 3181 3181 3181 3181 3181 3182 3182 3183 3183 3183 3183 3182 3182 3182 3182 3182 3181 3181 3180 3180 3179 3179 3178 3177 3176 3175 3175 3174 3173 3172 3171 3169
3175 3175 3175 3175 3175 3175 3175 3176 3176 3176 3177 3178 3178 3179 3179 3179 3180 3180 3181 3181 3180 3180 3181 3182 3182 3181 3181 3181 3181 3181 3181 3181 3181 3182 3182 3182 3182 3181 3181 3181 3181 3181 3181 3181 3181 3180 3180 3180 3179 3179 3180 3180 3181 3181 3181 3181 3182 3182 3182 3183 3183 3183 3183 3182 3182 3182 3182 3182 3182 3181 3180 3180 3179 3179 3179 3178 3177 3176 3175 3174 3173 3172 3171 3170 3168
3174 3175 3175 3175 3174 3174 3174 3175 3175 3175 3176 3177 3177 3178 3178 3179 3179 3180 3180 3180 3180 3180 3181 3181 3182 3181 3181 3181 3181 3181 3181 3181 3181 3182 3182 3182 3182 3182 3181 3181 3181 3181 3181 3181 3181 3181 3181 3180 3180 3180 3180 3180 3181 3181 3182 3182 3182 3182 3183 3183 3183 3183 3183 3182 3182 3183 3183 3182 3182 3181 3180 3179 3179 3178 3178 3177 3176 3175 3174 3173 3172 3171 3170 3168 3167
3174 3174 3174 3174 3174 3173 3174 3174 3174 3175 3175 3176 3176 3177 3178 3178 3178 3179 3180 3179 3179 3180 3181 3181 3181 3181 3181 3181 3181 3181 3181 3181 3181 3182 3182 3182 3182 3182 3182 3181 3181 3181 3181 3181 3181 3181 3181 3181 3181 3181 3180 3181 3181 3182 3182 3182 3183 3183 3183 3183 3183 3183 3183 3182 3182 3182 3182 3182 3181 3181 3180 3179 3178 3178 3177 3176 3175 3174 3173 3172 3171 3170 3168 3167 3166
3173 3174 3174 3173 3173 3173 3173 3173 3173 3174 3174 3175 3175 3176 3176 3177 3178 3179 3179 3179 3179 3180 3180 3181 3181 3181 3181 3181 3181 3181 3181 3181 3181 3182 3182 3182 3182 3182 3182 3182 3181 3181 3181 3181 3181 3181 3181 3181 3181 3181 3181 3181 3181 3182 3182 3182 3183 3183 3183 3183 3183 3183 3183 3182 3182 3182 3182 3182 3181 3180 3179 3178 3178 3177 3176 3175 3174 3173 3172 3171 3170 3168 3167 3166 3164
3173 3173 3173 3172 3172 3172 3172 3172 3172 3172 3173 3173 3174 3175 3175 3176 3177 3179 3179 3179 3179 3180 3180 3181 3181 3181 3181 3181 3181 3181 3181 3181 3181 3181 3182 3182 3183 3182 3182 3182 3182 3181 3181 3181 3181 3181 3181 3181 3181 3181 3181 3181 3181 3181 3182 3182 3182 3183 3183 3183 3183 3182 3182 3182 3182 3182 3181 3181 3180 3179 3179 3178 3177 3176 3175 3174 3173 3172 3171 3170 3169 3167 3165 3164 3163
3172 3172 3172 3171 3171 3171 3171 3172 3171 3171 3172 3172 3173 3174 3175 3176 3177 3178 3179 3179 3179 3180 3180 3181 3181 3181 3181 3181 3181 3181 3181 3181 3181 3181 3181 3182 3182 3182 3182 3182 3182 3182 3181 3181 3181 3181 3181 3181 3181 3181 3181 3181 3181 3181 3181 3182 3182 3182 3182 3182 3182 3182 3182 3182 3182 3181 3180 3179 3179 3179 3178 3177 3176 3175 3174 3173 3172 3171 3170 3169 3167 3166 3164 3163 3162
3171 3171 3170 3171 3171 3170 3171 3171 3170 3170 3171 3171 3172 3173 3174 3175 3176 3177 3178 3179 3179 3179 3180 3180 3181 3181 3181 3181 3181 3181 3181 3181 3180 3180 3180 3181 3181 3182 3181 3181 3181 3181 3181 3181 3181 3181 3181 3181 3181 3181 3181 3181 3181 3181 3181 3181 3181 3182 3182 3182 3182 3182 3181 3181 3181 3180 3179 3178 3178 3178 3177 3176 3175 3174 3173 3172 3171 3170 3169 3168 3166 3164 3163 3162 3161
3170 3170 3170 3170 3170 3169 3170 3170 3169 3170 3170 3170 3171 3172 3173 3175 3175 3176 3177 3178 3178 3179 3179 3180 3180 3180 3181 3181 3181 3181 3181 3180 3180 3179 3180 3180 3180 3181 3181 3181 3180 3180 3181 3181 3181 3181 3181 3181 3181 3181 3181 3181 3181 3181 3180 3180 3181 3181 3181 3181 3181 3181 3181 3180 3179 3178 3178 3177 3177 3177 3176 3175 3174 3173 3172 3171 3170 3169 3168 3166 3165 3163 3162 3161 3160
3169 3169 3169 3169 3169 3168 3168 3169 3168 3169 3169 3169 3170 3171 3173 3174 3175 3176 3177 3177 3177 3178 3178 3179 3179 3180 3180 3180 3181 3181 3180 3180 3179 3179 3179 3179 3180 3180 3180 3180 3180 3180 3180 3180 3180 3180 3180 3180 3180 3180 3180 3181 3180 3180 3180 3180 3180 3181 3181 3181 3180 3180 3180 3179 3178 3178 3177 3176 3176 3176 3175 3174 3173 3172 3171 3169 3168 3167 3166 3165 3164 3162 3161 3160 3159
3168 3168 3168 3168 3167 3167 3167 3167 3167 3168 3168 3169 3170 3171 3172 3173 3174 3175 3176 3176 3177 3177 3178 3178 3179 3179 3179 3180 3180 3180 3180 3179 3179 3179 3179 3179 3179 3179 3179 3179 3179 3179 3180 3180 3180 3179 3179 3180 3180 3180 3180 3180 3180 3180 3180 3179 3180 3180 3180 3180 3180 3179 3178 3177 3177 3177 3176 3176 3176 3175 3174 3173 3172 3170 3169 3168 3167 3166 3166 3165 3163 3162 3160 3159 3158
3167 3167 3167 3166 3166 3166 3166 3166 3167 3167 3168 3168 3169 3170 3171 3172 3173 3174 3175 3175 3176 3176 3177 3178 3178 3178 3178 3179 3179 3179 3179 3179 3179 3178 3178 3179 3178 3179 3179 3178 3178 3178 3179 3179 3179 3179 3179 3179 3179 3179 3179 3179 3179 3179 3179 3179 3179 3179 3179 3179 3179 3179 3177 3176 3177 3176 3175 3176 3175 3174 3172 3171 3170 3169 3169 3168 3167 3166 3165 3164 3163 3161 3159 3158 3157
3166 3165 3165 3165 3165 3165 3165 3165 3166 3166 3167 3168 3169 3170 3171 3171 3172 3173 3174 3175 3175 3176 3177 3177 3177 3178 3178 3178 3178 3178 3178 3178 3178 3177 3178 3179 3178 3178 3178 3178 3177 3177 3178 3178 3178 3178 3178 3178 3178 3179 3178 3179 3178 3178 3179 3178 3179 3178 3178 3178 3178 3177 3176 3175 3176 3175 3175 3175 3174 3173 3171 3171 3170 3169 3168 3167 3166 3165 3164 3163 3162 3160 3159 3157 3156
3165 3164 3164 3164 3164 3164 3164 3165 3165 3166 3166 3167 3169 3170 3170 3171 3172 3173 3174 3175 3175 3175 3176 3176 3176 3177 3177 3178 3178 3178 3177 3177 3177 3177 3177 3177 3177 3177 3177 3177 3176 3176 3177 3177 3177 3177 3177 3177 3177 3178 3178 3178 3177 3178 3178 3178 3178 3178 3178 3178 3177 3177 3175 3174 3174 3174 3174 3174 3173 3172 3171 3170 3170 3169 3168 3167 3166 3164 3163 3162 3160 3159 3158 3156 3155
3163 3163 3163 3163 3163 3163 3163 3164 3164 3165 3166 3167 3168 3169 3170 3171 3172 3173 3173 3174 3175 3175 3175 3176 3176 3176 3177 3177 3177 3177 3177 3176 3176 3176 3176 3175 3175 3175 3175 3175 3175 3175 3176 3176 3176 3176 3176 3176 3176 3177 3177 3176 3176 3177 3176 3176 3177 3177 3177 3177 3176 3177 3176 3174 3173 3173 3174 3174 3172 3172 3171 3170 3169 3168 3167 3166 3165 3163 3162 3160 3159 3158 3156 3155 3154
3162 3161 3161 3162 3161 3162 3162 3163 3163 3164 3165 3166 3167 3169 3169 3170 3171 3172 3173 3174 3174 3174 3175 3175 3176 3176 3176 3177 3177 3177 3177 3176 3176 3175 3175 3175 3175 3175 3175 3175 3175 3175 3175 3175 3174 3174 3174 3175 3176 3177 3176 3176 3176 3175 3175 3175 3176 3177 3177 3177 3176 3176 3176 3175 3174 3173 3173 3173 3172 3171 3170 3169 3169 3168 3166 3165 3164 3162 3161 3159 3157 3156 3155 3154 3152
3160 3159 3159 3160 3160 3161 3161 3162 3162 3163 3165 3165 3167 3168 3169 3170 3171 3172 3172 3173 3173 3174 3175 3175 3175 3176 3176 3176 3177 3177 3177 3177 3177 3176 3176 3176 3176 3176 3176 3175 3175 3175 3175 3174 3173 3174 3174 3175 3176 3176 3175 3176 3176 3175 3174 3174 3175 3176 3176 3176 3176 3176 3176 3175 3174 3173 3172 3172 3171 3170 3170 3169 3168 3167 3166 3164 3163 3161 3160 3158 3157 3155 3154 3152 3151
3158 3158 3158 3159 3159 3160 3160 3161 3162 3162 3164 3165 3166 3167 3168 3169 3170 3171 3172 3172 3172 3173 3174 3174 3175 3175 3175 3176 3176 3176 3176 3176 3176 3177 3176 3176 3176 3176 3176 3175 3175 3174 3174 3174 3174 3174 3175 3175 3176 3175 3174 3175 3175 3174 3174 3174 3175 3176 3176 3176 3176 3175 3175 3174 3174 3173 3171 3171 3171 3170 3169 3168 3167 3166 3165 3163 3162 3160 3159 3157 3156 3154 3152 3151 3149
3156 3156 3156 3157 3158 3158 3159 3160 3161 3161 3163 3164 3165 3166 3167 3169 3169 3170 3171 3171 3172 3173 3173 3174 3174 3174 3175 3175 3175 3176 3176 3176 3176 3176 3176 3176 3176 3176 3175 3175 3175 3175 3174 3174 3174 3174 3174 3175 3175 3175 3174 3174 3174 3174 3174 3174 3175 3175 3175 3175 3175 3175 3174 3174 3173 3172 3171 3170 3170 3170 3169 3168 3166 3165 3164 3162 3160 3159 3158 3156 3154 3153 3151 3149 3148
3154 3154 3154 3155 3156 3157 3158 3159 3159 3160 3161 3163 3164 3165 3167 3168 3168 3169 3170 3170 3171 3172 3172 3173 3173 3173 3174 3174 3174 3175 3175 3175 3175 3176 3176 3176 3176 3175 3175 3175 3175 3175 3175 3175 3174 3174 3174 3175 3175 3175 3175 3174 3174 3174 3174 3175 3175 3175 3174 3174 3174 3174 3174 3173 3173 3172 3171 3169 3168 3168 3167 3167 3165 3164 3162 3161 3159 3158 3156 3155 3153 3151 3149 3148 3146
3153 3153 3152 3154 3155 3155 3157 3157 3158 3159 3160 3162 3163 3165 3166 3167 3167 3168 3169 3169 3170 3171 3171 3172 3172 3172 3173 3173 3173 3173 3174 3174 3174 3175 3175 3175 3175 3175 3175 3175 3175 3175 3175 3175 3175 3174 3174 3174 3174 3175 3175 3174 3174 3174 3174 3174 3174 3174 3174 3174 3173 3173 3173 3172 3172 3171 3170 3169 3167 3166 3165 3164 3164 3163 3161 3159 3158 3156 3155 3153 3151 3149 3148 3146 3145
3151 3151 3151 3152 3153 3154 3155 3156 3156 3157 3159 3160 3162 3163 3164 3165 3166 3167 3168 3168 3169 3169 3170 3171 3171 3171 3171 3172 3172 3172 3173 3173 3173 3174 3174 3174 3174 3174 3174 3174 3174 3174 3174 3174 3174 3174 3174 3174 3174 3174 3174 3174 3174 3174 3174 3173 3173 3173 3173 3173 3173 3172 3172 3171 3171 3170 3169 3168 3166 3165 3164 3162 3161 3160 3159 3158 3156 3154 3153 3151 3149 3147 3146 3145 3143
3148 3149 3149 3151 3152 3153 3154 3154 3155 3156 3158 3159 3160 3162 3163 3164 3165 3166 3166 3167 3168 3168 3169 3169 3170 3170 3170 3170 3170 3171 3171 3172 3172 3172 3173 3173 3174 3174 3174 3174 3174 3174 3174 3174 3174 3174 3174 3174 3174 3174 3174 3174 3174 3173 3173 3173 3173 3173 3173 3172 3172 3171 3171 3170 3169 3169 3168 3166 3165 3164 3163 3161 3160 3158 3157 3156 3154 3152 3151 3149 3147 3146 3145 3143 3141
3146 3146 3148 3150 3151 3152 3152 3153 3154 3156 3157 3158 3159 3160 3161 3162 3163 3164 3165 3166 3167 3167 3168 3168 3169 3169 3169 3169 3169 3169 3169 3170 3171 3171 3172 3173 3173 3173 3173 3174 3173 3173 3173 3173 3173 3173 3173 3173 3173 3173 3173 3173 3173 3173 3172 3172 3172 3172 3172 3171 3171 3170 3170 3169 3168 3167 3166 3165 3164 3163 3161 3160 3159 3157 3155 3154 3152 3151 3149 3147 3146 3144 3143 3141 3139
3145 3145 3147 3148 3149 3151 3151 3152 3154 3155 3156 3157 3157 3158 3159 3160 3161 3163 3164 3164 3165 3166 3167 3167 3167 3168 3168 3169 3168 3167 3168 3169 3170 3171 3171 3172 3172 3173 3173 3173 3172 3173 3173 3173 3173 3172 3172 3173 3173 3173 3173 3172 3172 3172 3172 3172 3171 3171 3171 3170 3170 3169 3168 3168 3167 3166 3165 3164 3162 3161 3160 3159 3157 3156 3154 3152 3150 3149 3148 3146 3145 3143 3141 3139 3137
3143 3144 3146 3147 3148 3149 3151 3151 3153 3154 3154 3155 3156 3157 3157 3159 3160 3161 3162 3163 3164 3165 3165 3166 3166 3166 3167 3167 3167 3166 3167 3168 3169 3170 3171 3171 3172 3172 3172 3172 3172 3172 3172 3172 3172 3172 3172 3172 3172 3172 3172 3172 3171 3171 3171 3171 3170 3170 3170 3169 3168 3168 3167 3166 3165 3164 3163 3162 3161 3160 3158 3157 3156 3154 3153 3151 3149 3147 3146 3144 3143 3141 3139 3137 3134
3142 3143 3144 3145 3146 3148 3149 3150 3152 3152 3153 3153 3154 3155 3156 3157 3158 3159 3161 3162 3163 3163 3164 3164 3165 3165 3165 3165 3164 3165 3166 3167 3168 3169 3170 3171 3171 3171 3171 3171 3171 3171 3172 3172 3172 3172 3172 3172 3172 3172 3171 3171 3171 3170 3170 3170 3169 3169 3168 3168 3167 3166 3166 3165 3164 3163 3162 3160 3159 3158 3157 3156 3154 3153 3151 3149 3148 3146 3144 3142 3140 3138 3137 3134 3132
3140 3141 3142 3143 3145 3147 3148 3149 3150 3150 3151 3152 3152 3153 3154 3155 3157 3158 3159 3161 3161 3162 3162 3163 3163 3164 3165 3164 3164 3165 3166 3167 3168 3169 3169 3170 3170 3170 3170 3171 3171 3171 3171 3171 3171 3172 3172 3172 3172 3171 3171 3170 3170 3169 3169 3169 3168 3168 3167 3167 3166 3165 3164 3163 3162 3161 3160 3159 3158 3157 3156 3154 3153 3151 3150 3148 3146 3144 3143 3141 3139 3136 3134 3132 3130
3138 3139 3140 3142 3144 3146 3147 3148 3149 3148 3150 3151 3151 3152 3154 3155 3155 3156 3157 3159 3160 3161 3161 3161 3162 3163 3164 3164 3164 3165 3166 3166 3167 3168 3168 3169 3169 3169 3170 3170 3170 3170 3171 3171 3171 3171 3171 3171 3171 3171 3170 3170 3169 3169 3168 3167 3167 3167 3166 3165 3164 3163 3163 3162 3161 3160 3159 3158 3156 3155 3154 3152 3151 3150 3148 3147 3145 3143 3141 3139 3137 3135 3132 3130 3127
3136 3137 3139 3140 3142 3145 3146 3147 3147 3147 3149 3150 3151 3151 3153 3153 3152 3154 3157 3158 3159 3160 3160 3160 3161 3162 3162 3163 3164 3164 3165 3166 3166 3167 3168 3168 3168 3169 3169 3169 3170 3170 3170 3170 3170 3171 3171 3170 3170 3170 3169 3169 3168 3167 3167 3166 3166 3165 3165 3164 3163 3162 3161 3160 3159 3158 3157 3156 3155 3153 3152 3151 3149 3148 3146 3144 3143 3141 3139 3137 3135 3133 3130 3128 3125
3134 3135 3137 3139 3142 3144 3146 3146 3146 3146 3147 3148 3149 3149 3150 3150 3150 3153 3156 3157 3157 3158 3158 3159 3160 3161 3161 3162 3163 3164 3164 3165 3166 3166 3167 3167 3168 3168 3168 3169 3169 3169 3170 3170 3170 3170 3170 3170 3169 3169 3168 3168 3167 3166 3165 3165 3164 3164 3163 3162 3161 3160 3159 3159 3157 3157 3155 3154 3153 3152 3151 3149 3147 3146 3144 3143 3141 3139 3137 3135 3133 3130 3128 3126 3124
3131 3132 3134 3138 3142 3144 3145 3145 3144 3145 3146 3147 3147 3147 3148 3149 3150 3152 3154 3154 3155 3156 3157 3158 3159 3159 3160 3161 3162 3163 3164 3164 3165 3165 3166 3166 3167 3167 3167 3168 3168 3169 3169 3169 3169 3169 3169 3169 3168 3168 3167 3166 3166 3165 3164 3164 3162 3162 3161 3159 3159 3158 3157 3157 3156 3155 3154 3152 3151 3150 3149 3147 3146 3144 3142 3141 3139 3137 3135 3133 3130 3128 3126 3124 3123
3129 3131 3134 3138 3141 3142 3144 3144 3142 3144 3145 3145 3145 3145 3147 3148 3149 3150 3151 3152 3154 3155 3156 3157 3157 3158 3159 3160 3161 3162 3163 3164 3164 3165 3165 3166 3166 3166 3167 3167 3168 3168 3168 3168 3168 3168 3168 3168 3167 3167 3166 3165 3165 3164 3163 3162 3161 3160 3159 3158 3157 3156 3155 3155 3154 3153 3152 3151 3150 3149 3147 3145 3144 3142 3140 3138 3136 3134 3132 3130 3129 3127 3125 3123 3121
3128 3132 3134 3136 3139 3141 3143 3142 3140 3142 3142 3142 3142 3143 3145 3147 3148 3149 3150 3151 3153 3154 3155 3156 3156 3157 3158 3159 3160 3161 3162 3163 3163 3164 3164 3165 3165 3166 3166 3167 3167 3167 3167 3167 3167 3167 3167 3167 3166 3166 3165 3164 3163 3163 3162 3161 3160 3159 3158 3157 3156 3155 3154 3153 3152 3151 3151 3149 3148 3146 3145 3143 3142 3140 3138 3136 3134 3132 3130 3128 3127 3125 3123 3121 3119
3129 3131 3132 3135 3137 3139 3139 3139 3139 3139 3139 3140 3140 3142 3144 3145 3146 3147 3149 3150 3152 3153 3153 3154 3155 3155 3156 3157 3159 3160 3161 3162 3163 3163 3164 3164 3164 3165 3166 3166 3166 3167 3167 3167 3167 3166 3166 3166 3165 3164 3163 3163 3162 3161 3160 3159 3158 3158 3157 3156 3155 3154 3153 3152 3151 3149 3148 3147 3146 3145 3143 3142 3140 3138 3137 3135 3133 3131 3129 3127 3125 3123 3121 3119 3117
3127 3128 3130 3133 3135 3136 3136 3137 3137 3137 3137 3138 3139 3141 3142 3143 3145 3146 3147 3148 3149 3150 3151 3151 3152 3153 3155 3156 3158 3159 3160 3161 3162 3162 3163 3163 3164 3164 3165 3165 3166 3167 3166 3166 3166 3165 3165 3164 3164 3163 3162 3161 3160 3159 3159 3158 3157 3156 3155 3155 3154 3153 3152 3151 3150 3148 3146 3144 3144 3143 3142 3141 3139 3137 3135 3133 3132 3130 3129 3127 3124 3121 3119 3117 3115
3124 3126 3128 3130 3132 3133 3134 3134 3134 3135 3135 3136 3138 3139 3140 3142 3143 3144 3144 3145 3146 3147 3148 3149 3151 3152 3153 3155 3157 3158 3159 3160 3161 3161 3162 3162 3163 3164 3164 3165 3165 3165 3165 3165 3165 3164 3164 3163 3162 3161 3160 3159 3158 3158 3157 3156 3155 3155 3154 3153 3152 3152 3151 3150 3148 3146 3145 3142 3141 3140 3139 3139 3138 3136 3133 3131 3130 3129 3127 3125 3122 3120 3117 3116 3113
3121 3124 3126 3128 3130 3131 3131 3132 3132 3133 3133 3135 3136 3137 3139 3141 3141 3142 3143 3144 3145 3146 3146 3147 3149 3151 3152 3153 3155 3157 3158 3159 3160 3160 3160 3161 3162 3163 3164 3164 3164 3164 3164 3164 3163 3163 3162 3161 3161 3160 3159 3158 3157 3156 3155 3154 3154 3153 3152 3152 3151 3150 3149 3148 3146 3145 3144 3142 3140 3138 3136 3135 3134 3133 3132 3129 3127 3126 3124 3122 3121 3119 3117 3114 3112
3118 3121 3124 3126 3127 3128 3129 3129 3130 3131 3132 3133 3135 3136 3138 3139 3140 3140 3141 3142 3143 3144 3145 3146 3147 3149 3150 3152 3154 3155 3156 3157 3158 3159 3159 3160 3162 3163 3163 3163 3163 3163 3162 3162 3162 3161 3161 3160 3159 3158 3157 3156 3155 3154 3153 3153 3152 3152 3151 3151 3150 3149 3147 3146 3145 3143 3142 3141 3139 3137 3135 3134 3132 3130 3130 3129 3127 3124 3122 3121 3119 3117 3115 3112 3111